Portland, OR

9:58 PM PST on February 11, 2016 (GMT -0800)
Portland International

Weather History for KPDX - June, 2013

Change the Weather History Date:

Thursday, June 6, 2013

  Actual Average Record
Temperature  
Mean Temperature 69 °F 62 °F  
Max Temperature 83 °F 72 °F 98 °F (2003)
Min Temperature 55 °F 52 °F 45 °F (1962)
Degree Days  
Heating Degree Days 0 4  
Month to date heating degree days 7 26  
Since 1 June heating degree days 7 26  
Since 1 July heating degree days 3946 4213  
Cooling Degree Days 4 1  
Month to date cooling degree days 12 6  
Year to date cooling degree days 27 23  
Since 1 June cooling degree days 12 6  
Growing Degree Days 18 (Base 50)    
Moisture  
Dew Point 52 °F    
Average Humidity 60    
Maximum Humidity 83    
Minimum Humidity 36    
Precipitation  
Precipitation 0.00 in 0.08 in 1.70 in (1958)
Month to date precipitation T 0.46  
Year to date precipitation 13.15 17.88  
Snow  
Snow 0.00 in - - ()
Month to date snowfall 0.0  
Since 1 June snowfall 0.0  
Snow Depth 0.00 in    
Sea Level Pressure  
Sea Level Pressure 30.02 in    
Wind  
Wind Speed 6 mph (NW)    
Max Wind Speed 15 mph    
Max Gust Speed 20 mph    
Visibility 10 miles    
Events      
T = Trace of Precipitation, MM = Missing Value Source: NWS Daily Summary

Daily Weather History Graph

Daily Weather History Graph

Search for Another Location

Airport or City:

Trip Planner

Search our weather history database for the weather conditions in past years. The results will help you decide how hot, cold, wet, or windy it might be!

Date:

Astronomy

Jun. 06, 2013 Rise Set
Actual Time 5:22 AM PDT 8:56 PM PDT
Civil Twilight 4:44 AM PDT 9:33 PM PDT
Nautical Twilight 3:55 AM PDT 10:23 PM PDT
Astronomical Twilight 2:49 AM PDT 11:29 PM PDT
Moon 4:12 AM PDT (6/6) 7:18 PM PDT (6/6)
Length of Visible Light 16h 49m
Length of Day
15h 34m
Waning Crescent, 3% of the Moon is Illuminated
Jun 6
Waning Crescent
Jun 8
New
Jun 16
First Quarter
Jun 23
Full
Jun 29
Last Quarter

Hourly Weather History & Observations

Time (PDT) Temp. Heat Index Dew Point Humidity Pressure Visibility Wind Dir Wind Speed Gust Speed Precip Events Conditions
12:53 AM 62.1 °F - 54.0 °F 75% 30.01 in 10.0 mi NNW 5.8 mph - N/A   Mostly Cloudy
1:53 AM 61.0 °F - 53.1 °F 75% 30.01 in 10.0 mi Calm Calm - N/A   Scattered Clouds
2:53 AM 59.0 °F - 52.0 °F 78% 30.02 in 10.0 mi NNW 4.6 mph - N/A   Scattered Clouds
3:53 AM 57.9 °F - 51.1 °F 78% 30.02 in 10.0 mi NNW 4.6 mph - N/A   Mostly Cloudy
4:53 AM 57.0 °F - 51.1 °F 81% 30.03 in 10.0 mi Calm Calm - N/A   Partly Cloudy
5:53 AM 55.9 °F - 50.0 °F 80% 30.03 in 10.0 mi Calm Calm - N/A   Partly Cloudy
6:53 AM 57.0 °F - 51.1 °F 81% 30.04 in 10.0 mi NW 4.6 mph - N/A   Scattered Clouds
7:53 AM 59.0 °F - 52.0 °F 78% 30.05 in 10.0 mi NW 4.6 mph - N/A   Partly Cloudy
8:53 AM 61.0 °F - 53.1 °F 75% 30.05 in 10.0 mi Variable 3.5 mph - N/A   Scattered Clouds
9:53 AM 64.0 °F - 54.0 °F 70% 30.05 in 10.0 mi West 4.6 mph - N/A   Scattered Clouds
10:53 AM 66.9 °F - 55.0 °F 66% 30.04 in 10.0 mi WNW 4.6 mph - N/A   Scattered Clouds
11:53 AM 71.1 °F - 55.0 °F 57% 30.04 in 10.0 mi WNW 5.8 mph - N/A   Mostly Cloudy
12:53 PM 75.0 °F - 55.0 °F 50% 30.02 in 10.0 mi West 8.1 mph - N/A   Mostly Cloudy
1:53 PM 78.1 °F - 54.0 °F 43% 30.01 in 10.0 mi West 10.4 mph - N/A   Mostly Cloudy
2:53 PM 81.0 °F 80.7 °F 55.0 °F 41% 29.99 in 10.0 mi NW 9.2 mph - N/A   Mostly Cloudy
3:07 PM 82.4 °F 81.4 °F 53.6 °F 37% 29.99 in 10.0 mi NNW 4.6 mph - N/A   Mostly Cloudy
3:53 PM 82.0 °F 81.4 °F 55.0 °F 39% 29.99 in 10.0 mi NNW 5.8 mph - N/A   Mostly Cloudy
4:53 PM 82.9 °F 81.9 °F 54.0 °F 37% 29.98 in 10.0 mi North 10.4 mph - N/A   Mostly Cloudy
5:53 PM 81.0 °F - 51.1 °F 35% 29.98 in 10.0 mi NNW 13.8 mph 19.6 mph N/A   Mostly Cloudy
6:53 PM 77.0 °F - 55.0 °F 47% 29.99 in 10.0 mi NNW 6.9 mph 16.1 mph N/A   Mostly Cloudy
7:53 PM 73.9 °F - 48.9 °F 41% 30.00 in 10.0 mi NNW 10.4 mph 18.4 mph N/A   Mostly Cloudy
8:53 PM 71.1 °F - 44.1 °F 38% 30.01 in 10.0 mi NW 9.2 mph - N/A   Scattered Clouds
9:53 PM 66.9 °F - 45.0 °F 45% 30.04 in 10.0 mi NW 10.4 mph - N/A   Scattered Clouds
10:53 PM 64.0 °F - 45.0 °F 50% 30.05 in 10.0 mi WNW 3.5 mph - N/A   Clear
11:53 PM 62.1 °F - 44.1 °F 52% 30.06 in 10.0 mi WNW 8.1 mph - N/A   Clear